Theta_e
282 282 285 287 287 287 286 286 285 284 285 285 284 285 288 285 283 283 285 283 284 285 283 286 287 286 286 287 287 285 285 285 287 288 288 288 289 289 289 289 289 289 289 290 290 289 289 288 288 288 289 290 291 292 293 293 292 292 291 293 293 293 292 293 292 291 291 290 290 289 289 289 288 287 287 287 286 286 286 285 285 285 285 284 283 283 283
282 281 283 286 286 284 284 285 285 285 285 285 286 287 288 287 285 288 282 283 285 283 285 289 291 286 285 285 284 284 285 286 287 287 288 289 288 288 289 290 291 290 290 290 290 290 289 289 288 288 288 289 291 292 292 291 291 292 291 292 292 292 292 292 291 290 290 289 289 289 288 288 287 287 286 285 285 285 285 284 284 283 283 283 283 283 282
278 280 282 283 285 284 283 284 285 285 285 286 287 288 288 287 287 287 286 284 284 287 286 287 288 286 285 285 286 288 290 288 287 288 289 289 289 289 288 289 290 291 291 291 291 290 290 290 289 289 289 290 291 291 292 291 291 290 291 292 292 292 292 291 290 290 289 289 288 288 288 287 286 286 285 285 284 284 283 283 283 282 282 282 282 282 282
274 279 280 280 283 283 283 283 284 284 284 282 285 285 288 286 286 287 285 284 286 289 287 289 289 291 290 290 291 291 290 289 288 289 290 290 290 290 290 289 289 290 291 292 292 292 292 291 291 290 290 289 289 290 291 291 291 289 290 291 292 292 292 290 289 289 289 288 288 288 287 286 285 285 284 284 283 283 282 282 282 282 282 282 281 281 282
271 278 279 280 281 282 279 281 285 286 286 287 288 288 289 289 290 285 284 286 290 286 289 289 288 290 292 292 291 293 294 291 290 291 291 291 290 291 291 290 290 290 291 292 293 293 292 292 292 291 291 290 289 290 290 290 289 289 290 291 292 292 290 290 289 289 288 288 288 287 286 285 285 284 283 283 282 282 282 282 281 281 281 281 281 281 281
274 276 279 280 281 274 278 290 289 289 287 287 285 286 288 289 290 290 291 292 285 287 286 289 289 289 291 294 295 295 295 294 291 290 291 291 291 291 291 291 292 292 292 292 292 292 293 293 292 291 290 291 290 290 289 288 288 289 290 290 291 290 289 289 289 288 287 287 287 286 286 285 284 283 283 283 282 282 281 281 281 280 280 280 280 280 281
277 276 281 281 276 278 288 286 290 291 291 290 289 289 289 290 291 291 291 292 291 289 290 291 292 292 293 293 293 294 291 292 292 293 293 292 291 291 291 290 291 292 292 292 290 289 291 291 290 289 289 290 288 288 288 287 288 288 289 289 290 289 288 288 288 287 287 287 286 285 284 284 283 283 283 282 281 281 281 281 280 280 279 279 279 279 280
276 275 280 274 277 285 282 282 286 290 292 291 288 287 289 289 290 291 291 292 293 294 293 293 291 292 289 285 285 288 290 291 293 292 292 293 291 290 291 291 291 291 291 292 292 292 290 290 290 290 290 289 288 288 288 288 287 288 288 288 288 288 288 287 287 287 286 286 286 284 284 283 283 282 282 281 280 280 280 279 279 279 279 279 278 278 280
276 275 279 280 280 282 286 284 283 284 284 284 286 283 287 291 291 291 291 292 293 293 293 292 289 285 286 288 292 288 287 289 289 292 293 294 292 291 290 289 290 291 291 292 292 289 289 290 289 289 289 288 288 287 287 287 287 287 287 287 287 287 287 286 286 286 286 286 285 284 283 283 282 282 281 280 280 279 279 279 278 278 278 278 278 278 278
274 275 270 270 274 275 282 285 283 287 287 290 290 288 286 291 292 292 291 291 292 292 291 291 287 287 286 287 290 292 288 290 292 291 291 290 288 288 288 287 287 287 287 288 288 289 288 289 289 289 288 288 288 287 287 287 287 286 287 287 288 287 287 286 286 285 285 285 284 283 283 283 282 282 281 280 279 279 279 278 278 277 277 277 277 277 278
273 273 275 275 274 279 282 282 286 288 288 290 287 282 282 287 289 291 292 291 292 291 291 290 286 287 285 287 291 295 293 292 291 291 290 289 288 287 286 287 287 287 287 287 287 287 288 288 288 288 288 288 288 287 287 286 287 287 287 288 287 287 287 286 286 285 285 285 284 283 283 283 282 281 280 279 279 279 279 278 277 276 276 276 275 275 276
278 279 274 277 275 279 281 285 284 287 287 290 288 274 279 284 289 292 291 291 291 291 291 290 287 288 286 287 292 292 291 290 289 289 289 287 285 284 284 284 284 285 285 287 287 288 288 288 287 287 288 288 287 287 287 287 286 287 287 288 288 287 287 286 285 285 284 284 284 283 283 282 282 281 279 278 277 278 277 277 276 276 276 276 275 275 275
278 281 273 270 277 281 279 280 284 286 291 290 280 278 280 284 284 285 289 290 292 291 290 288 287 288 293 291 287 283 287 287 288 284 283 284 284 284 283 284 284 285 286 288 288 288 288 287 287 287 288 288 287 287 287 286 286 287 287 287 286 286 286 285 284 283 283 283 283 282 282 281 280 278 278 278 277 276 276 275 275 275 275 275 274 274 275
279 279 279 277 276 278 282 280 286 287 289 277 281 287 283 285 284 284 288 289 290 287 287 288 290 292 287 282 284 285 285 285 284 284 283 283 283 283 283 283 283 285 286 285 285 284 284 286 286 287 287 287 287 287 286 286 287 286 286 286 285 285 284 284 283 282 281 281 281 280 279 279 278 277 276 276 276 276 276 275 274 274 274 274 274 274 274
271 269 276 270 274 284 288 286 284 283 284 284 286 285 282 282 283 283 285 288 286 286 287 287 289 287 287 287 286 284 284 284 285 284 284 284 283 283 283 284 283 284 285 285 284 284 284 285 286 287 287 287 286 286 286 286 285 286 285 285 285 284 283 282 281 281 280 279 279 278 278 278 277 276 275 275 275 275 275 275 274 274 273 273 273 273 273
281 279 277 279 285 286 288 290 287 287 284 285 285 288 289 284 281 283 284 284 285 285 288 287 286 285 285 285 284 283 283 283 283 283 282 282 282 282 282 281 282 283 283 282 283 282 283 284 285 286 287 287 286 286 286 285 284 284 284 284 283 282 281 281 280 279 278 278 278 277 277 277 276 275 275 274 274 274 275 275 274 274 273 273 273 273 273
284 282 285 283 284 285 287 288 289 292 291 283 283 286 286 287 284 282 284 285 283 284 285 284 285 284 284 285 284 285 283 282 282 283 282 281 281 281 281 281 280 282 284 282 282 282 282 282 283 284 285 287 285 285 283 283 283 283 282 282 282 281 280 279 278 277 277 277 276 276 276 276 276 275 274 274 274 274 274 275 275 274 274 274 274 274 273
280 280 281 282 280 282 284 280 281 287 288 281 282 284 287 285 282 283 284 283 284 283 283 285 282 283 282 283 282 281 281 282 281 280 280 279 279 280 280 280 279 280 280 281 281 281 280 280 281 282 282 283 285 283 281 281 282 282 281 281 280 279 278 277 276 275 275 275 275 275 276 276 276 276 275 274 275 274 275 275 275 275 274 274 274 274 273
284 285 285 283 284 284 286 284 282 280 281 283 281 284 284 284 281 282 281 282 283 284 283 283 283 283 281 282 281 280 281 281 280 279 279 279 278 278 279 277 278 280 280 281 280 279 279 277 277 279 279 279 280 279 279 280 280 280 279 279 278 277 276 275 274 275 275 275 274 274 274 274 275 275 275 275 275 274 275 275 275 275 275 274 274 274 273
285 286 283 284 281 282 283 284 286 286 285 282 282 282 282 282 281 281 280 280 280 281 282 282 281 281 281 282 281 281 280 280 280 279 279 279 278 276 276 276 276 278 279 280 278 279 278 277 276 276 275 275 276 277 278 278 278 278 278 278 277 276 275 274 274 274 275 273 273 273 273 273 274 274 274 275 275 275 275 275 275 275 275 274 274 274 274
279 280 282 280 282 284 286 282 282 282 283 285 282 282 283 283 283 282 281 280 281 281 282 281 282 282 280 280 281 281 279 278 279 278 278 277 276 276 277 275 275 277 276 276 276 277 276 274 274 274 273 273 274 276 277 276 278 278 277 276 275 274 273 273 273 273 273 273 273 273 273 272 272 272 274 274 275 275 275 276 277 277 276 276 276 276 276
281 285 283 284 285 281 285 286 288 287 284 284 283 282 283 283 283 282 282 280 278 278 277 278 281 282 280 278 280 280 280 280 278 277 276 275 274 274 273 273 273 274 273 274 274 274 273 271 272 273 272 272 273 274 274 276 277 278 276 275 274 273 273 273 272 273 272 272 272 272 272 272 272 270 274 276 275 274 274 277 278 278 279 277 277 276 276
286 286 285 289 290 287 290 292 291 287 283 284 283 284 284 283 282 282 282 281 280 279 278 276 280 281 282 279 280 280 279 277 276 276 276 276 275 274 273 275 273 273 272 271 272 271 271 270 270 271 271 271 272 272 273 274 276 276 276 275 274 272 272 272 272 272 272 271 271 271 271 271 271 271 271 273 277 277 277 276 277 277 278 279 279 278 276
285 284 287 287 288 288 286 284 284 282 283 284 283 281 281 282 282 281 280 280 281 278 277 277 277 279 279 278 280 278 276 274 275 274 273 273 272 272 271 273 272 273 273 272 272 272 270 268 269 269 270 270 269 269 271 272 273 275 275 276 275 273 272 272 272 271 271 271 270 270 270 271 271 271 271 271 271 276 277 277 278 278 278 278 278 279 278
286 283 284 284 282 279 279 280 280 281 280 283 282 280 280 279 278 279 280 279 278 281 280 278 276 276 278 277 278 278 276 274 274 274 273 273 273 273 271 270 271 272 272 271 270 269 268 268 268 269 268 268 268 268 269 270 271 273 273 274 274 272 271 271 271 271 271 270 270 270 270 270 270 270 271 272 272 272 274 278 278 278 279 279 279 278 278
280 280 279 279 280 280 280 282 281 279 278 279 278 276 277 278 278 277 277 277 278 277 279 278 277 275 276 277 276 275 275 275 273 274 274 274 272 272 272 271 271 270 268 268 268 267 267 267 267 267 266 266 267 266 266 268 269 270 270 270 270 272 271 271 271 270 270 270 270 270 270 270 270 271 271 272 272 273 272 274 276 277 278 279 278 278 278
280 283 285 284 282 281 281 283 283 279 278 278 278 276 275 275 275 274 273 273 272 273 275 275 275 274 274 274 274 275 276 273 272 273 272 272 272 270 268 268 268 267 267 268 268 268 268 267 267 266 266 266 265 264 265 266 267 268 268 268 267 269 269 270 271 271 270 270 270 269 269 269 270 270 271 271 272 272 272 272 273 273 274 275 277 278 277
281 277 278 284 283 284 281 277 279 278 277 277 276 275 274 275 276 276 276 275 274 273 272 271 274 276 276 273 275 275 274 274 274 272 272 271 268 267 266 266 267 267 267 267 266 266 266 266 265 266 266 266 265 264 264 265 266 266 265 267 267 268 268 269 269 269 269 269 269 269 269 269 269 270 270 271 271 271 272 272 272 272 272 273 274 276 277
275 275 276 278 280 279 277 278 277 277 276 275 275 275 276 276 275 276 275 274 273 273 275 271 270 271 273 271 273 275 273 273 273 272 270 268 267 266 266 266 266 266 267 267 266 264 264 264 264 265 266 265 263 263 264 265 266 265 265 265 266 266 266 266 266 268 267 266 267 268 269 268 268 268 269 270 269 270 271 271 271 270 270 270 269 271 275
274 275 278 278 278 279 279 278 277 276 276 276 276 275 276 277 276 274 274 273 273 275 271 269 272 270 270 271 271 272 273 272 271 269 268 267 266 265 267 267 267 268 270 269 268 265 264 265 265 266 267 265 266 265 265 267 266 264 263 264 264 265 265 264 264 266 265 266 264 267 267 267 267 268 268 268 269 269 270 270 271 270 269 268 270 270 270
276 277 277 278 278 279 278 277 276 275 275 275 275 275 274 276 276 275 274 273 272 272 269 271 270 269 269 268 267 267 268 268 268 267 267 267 266 266 266 268 270 270 269 268 267 267 266 267 267 268 269 267 266 265 265 266 265 263 263 263 262 266 267 267 267 264 264 264 264 265 265 266 266 266 267 267 267 267 268 268 269 269 268 268 268 269 270
276 275 275 276 276 276 275 276 276 275 274 274 276 276 276 277 276 274 272 272 269 269 269 270 269 268 265 265 265 267 267 267 267 267 267 267 267 266 265 265 266 266 266 266 266 267 267 266 267 269 265 264 264 263 263 263 261 262 262 263 261 262 265 267 265 265 263 264 264 264 264 264 265 265 265 266 267 267 267 267 268 269 269 268 268 269 269
277 276 274 274 275 275 275 274 276 274 274 273 272 271 271 273 273 272 271 271 270 269 268 268 267 266 266 266 267 268 268 269 269 269 268 267 268 268 267 266 266 266 266 266 265 265 265 266 267 266 265 263 262 261 260 260 260 261 260 261 261 262 263 266 265 263 263 262 262 263 263 264 264 264 265 266 266 266 267 267 268 268 269 269 269 269 269
278 278 278 276 277 278 277 274 273 272 271 270 270 270 270 270 270 269 268 267 266 266 266 266 265 266 267 269 269 269 269 270 271 269 268 268 268 268 267 267 267 267 267 266 266 267 267 267 266 266 265 262 262 262 263 263 262 260 259 258 259 260 261 262 264 262 261 262 262 263 263 263 263 263 264 264 265 265 266 267 267 268 268 268 269 268 268
268 267 268 269 273 276 277 276 275 273 272 270 269 267 267 266 266 266 265 264 263 263 263 264 264 267 268 268 267 267 268 268 266 266 267 267 267 266 267 268 269 269 269 268 266 265 264 263 262 261 260 260 260 260 261 261 260 258 257 258 259 259 260 260 261 261 262 262 261 260 261 261 262 263 264 264 264 265 265 265 266 267 267 267 268 267 266
268 266 266 265 267 270 271 271 272 271 269 267 266 265 264 263 263 263 263 263 263 263 263 264 266 267 267 266 266 265 265 265 265 265 266 265 265 265 266 267 268 268 268 267 265 264 265 264 263 263 263 261 260 259 259 258 257 257 258 257 259 259 260 260 260 260 261 260 260 261 261 262 262 262 263 263 263 263 264 264 264 265 266 266 266 265 264
266 264 263 263 264 265 265 265 266 266 265 264 263 263 262 262 261 261 261 261 262 262 262 264 266 265 265 266 266 265 264 263 263 263 263 263 263 263 265 266 267 266 267 267 265 262 263 264 262 262 263 260 260 258 257 260 257 255 256 256 256 258 258 258 258 258 258 259 260 260 261 260 261 261 262 262 262 263 263 263 264 264 264 265 265 264 263
262 262 262 261 261 260 259 260 262 262 261 260 260 261 261 261 261 261 261 260 260 261 262 263 264 264 265 265 265 263 262 261 260 261 260 261 261 262 266 266 265 265 264 262 261 261 262 261 261 261 259 259 258 256 257 260 260 256 255 255 256 257 258 258 257 258 258 258 259 259 259 260 260 260 260 261 261 262 262 263 263 263 263 263 263 263 263
262 262 262 261 261 260 259 259 259 259 261 260 260 259 260 261 261 260 259 259 259 260 260 262 263 262 262 262 262 262 260 259 259 259 259 259 260 260 262 262 261 261 260 261 261 261 261 261 261 260 260 259 259 258 258 259 260 255 254 255 255 255 257 257 257 258 258 258 257 258 258 259 260 260 260 260 261 261 262 262 262 262 262 262 262 262 262
259 259 259 260 259 259 258 257 257 257 257 258 258 258 259 259 260 259 259 258 258 258 259 260 261 261 260 259 260 259 259 258 258 258 257 258 258 261 263 261 259 258 260 260 259 260 260 259 258 257 257 258 258 256 258 259 259 257 255 254 254 255 255 257 256 257 257 256 258 260 259 259 259 260 260 260 260 261 261 261 262 262 262 262 262 262 262
258 258 258 258 257 258 258 257 256 256 256 256 256 256 257 257 258 258 257 257 257 257 258 259 259 258 258 257 257 257 257 257 257 256 256 256 258 258 259 260 257 256 258 259 258 258 258 258 258 257 258 258 258 259 256 259 258 254 254 254 254 255 255 255 256 256 257 257 258 258 258 258 259 259 260 260 260 260 260 260 261 261 261 261 261 261 262
256 256 256 256 256 256 256 257 257 256 255 255 254 255 255 255 256 256 256 256 256 256 256 256 257 256 256 256 256 256 255 255 254 254 254 254 255 255 257 257 255 255 258 257 257 257 257 256 257 258 258 258 258 258 259 259 255 253 254 254 255 255 255 255 256 257 256 256 257 257 257 257 258 258 259 259 259 259 260 260 260 260 260 261 261 261 261
254 254 254 254 254 255 255 255 255 255 254 254 253 253 253 253 254 254 254 255 254 255 255 255 255 255 255 254 254 254 254 254 253 253 254 255 255 256 257 255 255 256 257 256 257 255 256 256 256 257 258 258 258 258 259 258 256 257 254 254 255 255 255 257 257 257 257 257 257 257 257 257 258 258 258 259 259 259 260 259 260 260 260 260 261 261 261
252 252 252 253 252 253 255 255 255 255 254 253 253 254 253 252 252 251 252 252 253 253 253 253 254 254 254 253 253 253 254 253 252 252 252 254 254 254 254 253 253 255 256 256 255 255 254 255 254 256 257 258 258 258 258 256 256 254 253 254 254 254 256 257 258 258 257 257 257 257 257 257 258 258 258 259 259 259 259 259 259 259 260 260 260 260 260
251 251 251 251 251 251 252 253 252 252 252 253 253 253 252 251 251 251 251 250 251 251 252 252 252 252 252 252 252 252 253 253 252 251 251 253 255 253 253 254 254 254 254 256 255 254 254 254 256 257 257 258 258 258 258 256 256 255 252 254 254 255 256 257 257 257 257 256 256 257 257 258 258 259 259 259 259 260 259 259 259 259 259 259 260 260 260
250 250 250 251 250 249 250 250 251 251 251 253 253 253 252 250 250 250 249 249 248 251 252 251 250 250 251 250 251 251 250 251 252 251 252 253 253 252 253 254 253 254 255 255 253 254 253 256 257 257 257 258 258 257 254 254 254 253 254 255 255 256 255 255 255 255 255 256 257 257 258 259 259 259 259 259 259 260 260 260 260 260 260 260 260 260 260
250 249 249 249 249 248 248 248 250 252 253 253 253 252 252 250 249 249 248 248 248 248 249 249 250 250 251 250 249 249 250 251 252 253 251 250 251 252 254 254 254 254 255 254 254 254 255 255 256 257 257 257 257 255 253 252 252 252 253 253 254 255 254 254 254 254 255 256 257 258 258 259 258 259 259 259 259 260 260 260 260 261 261 261 261 260 260
249 248 248 248 247 248 248 248 250 250 250 250 250 249 249 248 248 247 247 247 247 247 247 248 248 248 248 248 248 248 249 249 252 254 251 247 250 250 251 251 252 254 254 254 254 255 255 255 256 256 256 257 256 252 252 252 252 253 253 254 253 252 252 252 252 253 254 255 256 256 257 257 257 258 258 259 260 260 260 260 260 261 261 261 260 261 260
247 247 248 247 247 247 248 249 249 249 249 249 248 247 249 248 247 247 247 247 246 247 248 248 247 247 246 248 248 248 247 249 250 251 251 250 250 250 250 251 252 253 253 252 251 251 254 255 255 255 255 255 253 252 251 252 253 253 253 253 253 253 253 253 254 254 255 256 257 257 258 258 258 259 259 260 260 260 260 260 260 261 260 260 260 259 259
246 246 247 248 248 248 248 248 248 248 248 248 248 248 247 246 248 248 249 247 246 249 247 247 247 248 247 247 246 246 244 245 246 246 247 247 247 248 249 249 250 252 253 252 249 251 253 254 253 253 253 250 250 250 251 252 251 253 252 254 255 253 255 256 257 258 257 257 258 258 258 258 258 259 259 259 259 259 259 259 259 259 259 259 259 259 259
246 246 245 247 246 246 245 246 247 247 246 247 246 247 247 246 246 248 248 248 247 247 248 247 247 248 246 244 245 245 244 243 244 248 248 248 247 250 251 251 250 251 252 252 249 250 249 248 249 251 252 251 251 250 250 251 251 252 253 252 252 253 253 255 254 254 255 255 256 256 257 257 257 258 258 258 258 258 258 258 258 259 259 259 259 259 259
245 244 244 244 243 244 244 245 245 245 245 245 245 244 245 245 246 246 247 249 247 246 245 246 247 247 247 245 246 245 244 245 246 246 249 248 248 247 249 251 250 250 249 248 248 248 249 249 251 252 252 251 250 250 252 253 253 252 252 253 253 253 254 254 254 254 254 255 255 255 256 256 257 257 257 257 257 257 257 257 257 258 258 258 259 259 259
Wind_Speed
1 4 8 11 14 13 12 17 17 17 18 16 18 20 24 6 10 22 8 7 18 12 6 11 11 7 3 1 4 3 4 7 7 7 8 7 6 5 5 7 7 7 9 9 9 8 9 6 7 7 6 5 4 3 4 5 6 6 5 6 6 6 6 6 6 5 6 6 6 8 8 8 9 10 9 9 9 9 9 9 8 9 8 9 11 10 8
4 3 4 8 9 4 4 10 12 15 17 23 25 25 23 15 13 18 4 11 12 4 10 12 10 5 4 3 2 2 5 6 6 7 8 9 8 6 8 8 8 8 9 8 8 8 7 9 8 7 7 7 8 8 7 6 6 5 6 5 6 6 6 5 6 6 6 6 7 7 8 9 9 10 10 10 9 9 9 9 9 9 8 9 9 10 10
2 4 5 1 8 7 5 6 11 14 18 20 23 22 18 12 17 19 13 8 16 11 7 6 5 5 3 4 7 9 10 7 5 7 8 8 8 8 8 8 8 8 8 8 8 9 10 9 10 9 9 9 8 9 8 8 7 5 6 7 5 7 6 6 6 7 7 7 7 8 8 8 9 10 10 9 9 9 9 9 9 9 9 10 9 9 10
1 2 4 4 3 2 7 9 13 17 17 17 17 16 17 15 23 24 10 12 21 14 10 8 7 9 8 9 11 10 9 8 6 8 11 10 9 8 9 8 7 8 9 10 11 12 11 11 11 11 10 10 9 10 8 8 7 6 7 6 7 7 7 7 7 7 7 8 8 8 8 10 10 9 9 9 9 10 9 10 9 8 9 10 10 9 8
1 2 5 7 6 3 3 10 22 24 16 14 13 16 15 20 21 9 11 27 15 5 12 9 9 11 14 15 12 13 14 7 10 10 10 10 10 11 9 8 8 9 11 12 12 10 9 11 12 13 11 10 12 11 10 8 7 8 8 8 7 7 7 8 8 7 8 8 8 8 8 9 9 9 9 9 9 9 10 9 9 10 10 11 10 9 9
3 1 4 3 4 2 13 14 7 14 19 23 19 21 23 19 13 19 20 16 2 4 6 13 11 13 13 14 13 11 11 12 5 8 9 11 11 8 8 9 8 9 8 7 8 9 10 10 10 8 10 11 9 7 9 8 10 9 9 8 7 7 7 8 8 8 8 8 9 9 9 9 9 10 9 10 8 8 8 8 9 9 8 10 10 9 9
7 5 5 6 6 14 14 6 14 21 23 23 25 22 13 16 16 17 18 18 15 9 12 11 11 8 10 8 11 13 8 7 7 9 11 11 11 11 9 8 10 10 8 6 5 7 9 9 7 8 8 7 6 7 8 9 8 9 9 9 8 8 9 8 8 8 9 9 9 9 9 9 9 9 9 8 9 8 9 10 10 11 10 10 9 7 9
5 4 9 7 18 9 3 2 6 15 19 17 11 12 13 12 16 23 25 26 19 16 14 10 6 9 7 4 6 10 9 7 8 8 11 13 10 9 11 11 7 6 8 10 10 10 5 7 8 8 9 7 8 8 7 9 9 9 9 9 9 8 9 9 10 10 10 10 10 10 10 9 10 10 9 10 11 8 8 6 5 6 5 6 9 8 7
9 6 12 12 6 8 10 6 5 6 7 8 13 13 20 22 20 18 20 18 16 17 12 10 8 2 1 5 12 6 7 7 9 14 14 13 11 10 5 3 6 8 6 7 7 4 5 7 8 9 7 8 8 8 9 9 9 9 9 10 10 10 10 10 10 10 10 11 11 10 10 10 11 11 11 10 8 7 9 8 9 8 8 7 6 8 9
5 8 2 2 6 9 18 4 2 4 6 10 10 10 16 10 15 15 16 17 16 14 12 11 5 3 4 12 14 9 9 13 14 14 10 8 3 0 1 2 2 3 4 4 3 6 6 7 7 6 7 9 9 9 8 8 9 9 10 11 10 11 10 9 10 10 11 11 11 11 11 13 12 10 8 6 8 8 11 11 9 8 8 8 6 6 9
5 5 9 9 10 16 1 6 8 9 10 13 7 5 16 6 11 15 20 21 17 15 14 12 8 7 9 15 11 14 11 11 9 8 7 6 4 4 5 5 5 4 5 4 4 4 5 7 6 7 9 10 9 9 9 9 9 10 11 11 11 11 11 10 10 10 9 9 10 11 11 11 10 11 10 10 7 6 6 7 8 7 7 8 7 5 4
8 9 6 10 5 8 3 8 5 10 8 12 9 1 9 6 15 17 17 18 17 17 17 11 10 13 13 11 15 6 3 4 1 4 5 2 1 1 2 2 3 3 2 4 3 6 8 6 6 8 9 9 8 9 8 8 9 11 11 8 5 5 6 7 7 8 8 9 9 10 11 9 8 8 7 8 8 8 7 6 8 7 7 7 9 7 6
4 7 5 3 7 5 3 6 3 9 12 13 9 13 9 3 3 3 7 14 16 16 13 8 10 13 16 8 2 2 1 3 2 3 2 0 0 1 2 3 3 2 3 3 4 3 2 5 7 7 8 8 8 7 7 8 11 7 4 5 6 6 7 7 7 7 6 7 8 6 6 7 6 6 6 8 8 8 9 7 8 8 8 8 8 7 6
12 10 8 9 6 7 8 1 11 9 10 7 17 7 3 3 1 3 10 11 12 7 8 10 12 12 5 5 3 5 3 3 2 1 2 2 2 1 0 1 1 4 3 3 4 3 3 6 7 8 8 8 7 7 7 9 7 5 6 7 7 7 8 7 7 7 7 6 6 7 7 8 9 7 5 6 7 9 8 9 11 10 9 8 8 6 5
6 3 7 1 9 7 14 11 3 5 8 6 4 3 1 2 1 4 4 9 6 6 7 9 12 6 4 6 4 4 2 3 3 3 3 3 3 3 3 4 3 4 5 4 4 3 3 5 6 7 8 8 7 6 8 7 5 6 6 7 8 8 8 8 8 9 8 9 9 8 9 9 10 9 8 8 8 8 10 10 10 11 10 9 8 7 4
15 12 10 11 7 6 11 20 14 10 7 1 2 6 4 2 3 4 4 3 6 7 8 9 8 5 4 0 1 3 1 1 1 2 2 2 3 2 2 2 1 4 6 4 4 3 2 4 5 6 8 7 7 7 7 4 6 6 7 7 7 8 8 8 8 8 8 9 8 8 10 10 9 10 9 8 8 8 9 10 10 10 8 7 7 8 7
8 11 12 1 2 6 6 4 2 12 11 1 2 1 2 6 4 3 3 6 5 7 6 5 5 4 5 2 2 4 4 3 3 3 3 3 3 3 3 3 3 2 5 6 5 4 3 2 2 3 3 6 6 6 3 5 6 7 6 7 7 7 7 7 7 7 7 7 8 8 8 10 11 10 10 10 10 7 9 9 9 10 9 7 7 7 7
2 4 2 1 1 3 4 2 1 6 9 1 2 2 1 1 3 8 4 4 6 5 5 6 2 3 4 5 2 3 4 4 2 2 3 3 3 3 3 4 5 4 5 6 5 6 5 3 2 1 1 2 5 3 4 4 5 6 7 7 7 6 6 6 6 7 8 5 5 6 7 6 8 8 11 11 10 9 8 8 8 9 9 8 7 7 7
7 14 7 5 6 2 8 2 1 2 1 3 1 1 1 1 3 3 2 3 6 7 6 4 5 5 3 5 4 3 3 4 3 3 4 3 4 4 4 2 1 4 4 6 5 5 4 3 3 2 2 2 3 5 5 4 5 6 6 7 6 6 6 6 5 6 8 7 6 5 5 4 4 5 5 6 7 8 9 9 9 8 9 9 9 9 9
14 10 7 7 1 3 3 5 2 3 6 3 2 1 1 3 2 2 1 1 3 3 4 3 4 4 4 7 6 4 4 4 4 3 4 4 4 3 2 3 2 4 5 5 5 5 4 3 2 3 3 3 3 5 4 5 6 6 6 7 7 6 6 5 5 5 6 7 7 6 5 6 6 6 5 6 8 10 12 12 12 10 10 10 11 11 11
2 4 1 3 4 1 2 4 6 4 5 8 5 4 5 4 5 4 5 4 1 2 3 3 6 7 2 3 6 6 4 3 3 3 3 3 4 4 5 4 4 5 4 6 4 5 3 2 2 3 4 3 3 4 5 5 6 7 6 5 6 6 6 6 5 4 5 6 6 6 6 5 3 4 7 8 8 6 4 3 5 9 12 12 11 10 9
7 12 8 8 7 5 7 9 13 13 6 5 6 5 4 4 6 5 7 5 4 4 3 1 4 8 5 3 5 6 5 4 4 3 3 3 4 4 3 4 5 6 5 5 5 4 2 2 3 4 4 3 3 3 3 4 5 7 7 6 6 6 6 6 6 6 5 5 5 5 6 6 6 2 1 5 4 5 6 3 1 2 4 7 7 8 9
15 8 10 14 8 5 10 15 14 6 8 8 10 9 7 5 3 5 9 8 5 6 5 2 6 8 8 6 6 8 6 4 3 2 4 4 4 4 2 5 5 6 4 4 5 4 2 2 3 3 4 3 3 2 2 3 5 6 7 6 5 5 6 5 6 6 5 5 5 5 5 6 5 6 3 1 3 3 4 4 4 4 5 4 6 9 6
2 5 14 11 7 10 4 0 5 8 7 9 6 4 3 5 6 5 3 3 10 5 4 6 4 6 8 5 7 10 7 4 5 4 4 4 4 3 3 4 4 5 4 3 3 2 1 3 4 3 4 3 2 2 2 1 3 5 6 7 7 6 6 5 6 6 5 5 5 5 5 5 6 6 5 5 2 3 6 6 7 8 8 8 8 10 9
6 3 5 5 4 6 4 4 4 5 4 6 9 6 5 5 4 3 7 6 3 8 9 7 5 4 8 6 6 8 7 4 4 5 5 4 4 5 3 4 4 3 2 1 2 2 3 3 4 3 4 3 3 2 1 1 2 4 4 4 5 5 5 6 6 6 6 6 6 6 7 7 7 6 7 7 8 5 3 6 7 8 9 10 11 11 12
7 7 6 6 5 5 4 7 7 4 4 6 7 4 5 6 7 8 6 5 6 4 8 8 8 4 5 9 8 8 9 7 4 4 6 6 4 5 6 4 1 2 2 3 3 3 3 4 3 3 2 2 3 3 2 1 1 3 3 3 4 5 6 6 6 6 6 6 6 6 6 6 6 7 7 7 6 6 5 3 4 5 8 10 11 12 12
4 9 13 10 5 2 1 4 7 4 5 6 11 10 7 8 9 9 7 7 6 5 7 7 7 6 6 6 7 5 10 6 5 6 6 6 6 3 2 2 2 3 3 4 4 4 4 3 3 2 2 2 1 0 0 0 1 2 2 2 3 3 7 6 5 5 5 5 5 5 5 6 6 7 7 6 6 7 8 9 9 8 7 7 10 12 9
5 1 2 7 10 11 6 5 10 10 8 10 12 13 9 8 9 10 10 9 8 6 7 5 6 7 9 4 7 8 7 8 8 5 7 6 3 3 3 3 4 4 5 6 4 4 3 3 3 3 3 3 2 1 0 1 1 2 2 3 3 4 3 4 4 4 5 5 5 6 6 6 6 6 5 5 6 6 5 6 6 6 4 5 4 7 12
2 3 3 3 6 11 12 9 11 11 10 7 7 8 9 12 9 10 8 7 5 6 8 6 6 6 7 5 5 8 7 6 7 6 5 3 3 4 3 3 3 4 6 5 4 3 3 3 3 4 4 3 2 1 1 0 1 1 1 2 3 3 3 3 3 4 4 5 5 5 5 5 4 5 5 5 5 5 5 6 6 4 5 3 2 3 6
2 3 8 9 12 15 16 11 10 10 11 8 9 6 7 14 12 7 7 5 6 10 4 4 8 8 5 7 6 5 7 7 6 4 4 4 4 4 4 2 1 4 5 7 6 4 4 4 4 4 3 2 1 1 1 1 1 0 1 1 2 3 3 3 3 4 3 5 4 5 5 5 4 5 5 5 6 6 6 7 6 6 6 6 6 8 10
5 7 10 9 10 8 14 12 9 8 8 7 8 9 5 9 12 10 6 5 6 7 5 7 7 6 8 6 4 4 5 6 6 5 5 5 4 4 5 5 6 4 4 3 3 4 4 4 4 3 4 3 2 1 1 1 1 1 1 1 1 3 4 5 4 5 5 4 4 5 5 4 4 5 6 5 5 6 6 5 6 6 6 6 7 8 8
14 11 10 9 9 13 10 8 10 9 7 6 9 9 8 11 12 11 7 7 5 6 6 7 7 6 3 2 4 5 7 7 6 6 6 6 6 6 5 5 4 3 1 0 1 3 3 3 4 5 5 4 3 2 1 0 0 0 1 2 2 1 2 4 3 3 4 4 4 4 5 5 5 6 5 6 7 7 6 6 7 7 6 8 9 8 6
17 12 8 9 9 10 9 5 10 8 7 8 7 4 5 6 8 8 7 6 6 6 7 6 3 2 2 4 4 5 6 7 6 5 5 5 5 5 5 3 2 2 1 0 0 0 1 2 3 3 4 2 2 1 1 0 1 1 2 2 1 1 2 2 3 3 3 3 4 5 4 5 5 6 7 7 6 6 6 7 8 8 8 8 8 7 7
6 8 12 7 8 15 17 11 7 11 9 8 6 8 8 8 7 7 7 5 7 7 6 4 2 2 3 5 6 4 4 4 5 6 5 5 6 5 4 3 2 2 2 3 2 3 3 2 4 4 4 4 2 1 1 2 2 2 2 2 2 1 1 2 2 2 3 4 5 4 4 5 5 6 6 6 6 6 7 8 7 8 8 9 8 7 8
12 12 10 9 9 10 10 12 11 10 11 11 9 9 8 7 8 7 5 8 7 3 2 2 3 4 5 7 8 8 9 7 4 3 4 5 5 5 5 4 5 6 7 7 7 7 6 6 5 5 4 3 1 1 1 2 1 1 1 1 1 1 1 2 2 4 4 4 3 3 4 5 5 5 6 6 6 6 7 7 7 7 8 9 7 6 7
8 12 12 13 11 12 12 11 10 11 11 11 9 8 8 7 7 8 8 6 2 3 4 4 4 6 8 8 8 7 7 5 5 5 4 5 5 5 5 5 6 6 5 6 7 7 7 6 7 7 4 3 3 3 2 1 1 1 1 1 1 1 2 2 2 1 3 2 3 4 4 5 5 6 6 6 6 6 7 7 8 8 8 8 6 7 6
13 13 10 9 10 13 14 11 9 11 11 10 9 9 9 8 8 5 5 5 5 5 5 4 6 8 7 6 6 6 6 5 4 4 4 4 4 5 3 2 3 3 2 3 5 7 6 6 8 7 5 4 4 4 3 3 1 1 0 1 1 1 1 2 2 3 3 3 4 5 5 5 4 5 6 6 6 6 7 7 7 7 8 7 6 6 6
12 12 13 11 9 14 15 10 8 10 12 13 10 8 8 7 5 5 6 5 5 5 4 5 6 5 5 5 6 6 6 5 5 4 4 5 4 5 4 4 4 3 4 2 4 5 5 7 9 6 5 5 5 4 4 4 4 1 1 1 1 2 3 2 4 5 4 4 5 4 4 5 5 6 5 6 6 6 7 7 7 7 7 7 7 7 7
13 11 12 10 10 11 10 8 9 9 10 12 9 9 7 6 6 6 6 6 5 4 4 4 4 5 5 5 5 5 5 5 5 6 5 5 5 4 4 4 4 4 2 3 3 4 5 6 5 6 5 6 5 6 4 5 4 1 2 2 2 2 3 3 3 5 5 5 4 4 5 5 5 6 6 6 6 7 7 8 8 7 7 7 7 8 8
10 10 9 8 10 8 9 9 10 9 9 8 8 8 5 5 5 6 6 6 5 6 4 4 4 5 5 5 4 3 4 4 4 5 5 5 5 2 4 4 3 3 5 5 5 4 7 8 6 5 5 4 5 5 5 6 4 2 2 2 3 3 3 4 3 4 5 4 5 6 6 6 5 6 7 6 6 7 7 7 8 7 7 7 7 7 7
8 7 6 9 8 8 8 8 8 8 7 7 7 7 6 5 3 5 6 5 4 5 5 5 4 5 4 3 3 2 3 2 3 4 4 3 2 3 2 0 2 3 5 5 5 5 7 6 5 5 6 5 5 5 4 5 4 2 3 3 3 4 5 4 5 5 5 5 6 5 6 6 6 6 6 6 6 6 6 7 7 7 7 8 8 7 7
7 7 8 8 7 7 7 6 6 7 7 7 6 6 6 6 6 5 4 3 3 4 5 5 6 4 3 2 2 2 2 2 3 4 3 2 1 0 1 1 2 3 7 7 6 5 6 4 5 4 5 5 5 7 7 6 4 3 3 3 4 4 4 4 5 6 6 6 5 5 6 6 6 6 6 6 6 6 6 7 7 7 7 7 8 8 8
7 7 6 6 5 6 6 5 6 7 7 5 5 4 4 4 4 4 3 4 4 4 4 4 4 3 3 2 2 1 1 2 3 5 5 4 3 4 2 0 3 4 7 6 5 4 5 5 5 4 7 7 7 9 8 5 4 4 4 4 5 4 5 5 5 5 5 5 5 5 5 6 6 6 6 7 7 7 6 7 7 7 7 7 7 8 8
6 6 6 6 5 4 4 5 4 3 5 4 3 3 4 4 4 4 3 3 3 3 3 2 2 2 2 1 2 1 2 3 3 3 3 4 2 3 4 3 3 4 6 6 4 5 5 5 5 7 9 10 10 10 6 4 4 4 4 4 5 5 5 5 5 5 5 6 5 6 6 6 6 6 6 7 7 7 7 7 7 7 7 7 7 7 7
5 4 5 5 3 3 2 2 3 5 2 1 2 4 4 4 4 3 4 4 3 1 2 1 2 1 1 1 2 1 2 3 3 2 2 2 1 0 1 5 5 4 6 7 5 4 4 5 6 10 10 10 10 9 5 4 4 5 4 5 5 5 5 5 5 5 6 5 5 5 6 6 6 6 7 7 8 8 8 7 8 7 7 7 7 7 7
3 2 2 2 5 5 1 1 0 1 2 4 4 4 4 4 4 2 2 3 3 2 1 2 2 2 2 2 2 3 3 4 4 4 6 5 3 3 3 4 4 5 8 8 4 5 5 8 10 11 11 11 10 7 5 5 6 5 5 5 5 5 5 5 5 6 5 5 6 5 5 6 6 6 7 7 7 8 8 9 8 7 7 7 7 7 7
2 4 4 4 4 3 3 2 2 2 3 4 6 4 3 3 4 3 3 3 2 2 4 3 3 4 3 3 2 3 4 3 4 2 3 1 1 2 4 6 6 7 7 5 5 5 6 6 8 11 11 12 10 6 5 5 5 4 5 5 5 5 5 5 5 5 5 5 6 6 6 7 7 7 7 7 8 8 8 8 8 8 7 7 8 6 7
6 6 3 3 3 4 4 4 5 6 5 4 1 1 3 2 4 3 3 1 2 3 3 3 3 3 3 3 3 3 3 0 5 5 4 1 3 3 3 3 5 8 9 6 7 7 10 11 11 11 11 11 7 4 5 5 5 5 5 5 5 5 5 5 6 5 5 5 6 6 6 6 6 7 7 7 8 7 7 8 8 7 7 7 7 7 6
3 3 3 2 1 3 4 3 3 4 2 0 1 2 2 3 3 3 2 2 5 4 4 4 4 4 3 4 2 3 3 3 3 5 2 4 5 5 5 5 7 8 7 5 5 5 7 10 10 10 11 8 5 5 5 5 5 5 5 5 5 5 5 5 5 5 5 6 6 6 6 6 6 6 7 7 7 7 6 7 7 7 6 6 6 4 6
0 2 3 3 3 2 1 2 1 0 0 1 2 1 1 1 3 2 1 2 2 4 3 4 4 3 4 4 3 3 2 3 4 4 5 5 5 5 5 5 5 7 7 6 4 6 6 9 8 8 7 4 5 4 4 5 4 5 4 6 5 5 5 6 5 6 6 6 5 6 6 6 7 8 8 7 7 7 6 6 6 7 9 6 4 5 5
0 1 1 2 1 2 2 3 3 2 2 3 2 2 0 1 2 4 3 4 3 4 5 5 5 5 3 3 4 3 2 2 3 4 4 5 4 5 5 5 4 5 6 6 5 6 6 5 5 6 6 5 5 4 4 5 5 5 5 5 4 5 5 6 5 5 5 6 5 6 6 6 6 7 6 6 6 6 6 5 5 5 5 5 5 4 4
1 1 1 1 2 4 3 3 3 3 3 2 2 1 1 1 1 4 5 4 3 3 3 4 7 5 1 2 5 5 3 3 5 4 5 6 4 4 6 6 5 5 5 5 6 5 5 6 5 6 6 6 5 5 5 7 6 5 6 6 5 5 6 6 6 5 4 6 6 6 6 6 6 6 6 6 6 6 6 5 5 5 5 5 5 5 4
Wind_Direction
102 146 141 158 170 182 179 179 183 181 188 185 197 217 228 136 191 229 233 142 227 239 171 233 251 239 190 271 301 273 278 301 301 310 310 299 281 269 247 240 231 227 227 224 219 214 214 205 205 197 191 198 197 198 194 181 175 181 171 162 162 161 158 163 160 153 140 137 130 136 137 135 134 120 119 121 131 137 142 139 138 142 138 132 129 116 111
88 27 147 155 145 137 135 182 184 190 181 195 203 218 221 206 229 240 176 205 239 218 205 213 237 261 248 242 182 268 307 283 288 303 298 293 287 268 250 239 230 227 230 229 227 220 214 206 201 193 192 193 191 188 191 190 190 182 160 171 161 159 161 157 151 147 142 139 141 139 140 140 139 126 125 134 141 141 142 138 136 138 133 132 130 130 129
48 1 36 41 147 141 171 199 190 191 197 204 210 216 223 218 250 253 244 279 279 240 224 250 231 224 306 342 309 282 264 274 280 269 270 274 270 259 251 246 232 228 228 226 222 218 218 208 204 196 196 194 193 194 191 183 186 170 166 169 170 164 165 155 152 145 145 147 142 148 146 140 135 145 145 144 143 141 139 142 143 144 139 135 131 131 136
27 353 79 67 75 130 171 198 208 205 198 206 212 215 213 198 222 231 232 267 255 241 174 227 258 276 250 245 253 252 244 236 234 245 255 259 267 271 260 243 229 227 226 222 219 218 209 204 200 198 194 191 186 200 187 184 175 155 171 174 173 175 162 154 155 157 153 148 152 152 149 140 138 148 144 144 146 145 143 144 145 142 141 134 127 131 129
193 265 123 111 107 99 319 256 218 202 201 213 214 225 216 211 220 212 207 233 235 138 183 180 217 216 246 263 266 275 277 206 204 240 255 252 241 242 249 251 234 225 224 221 219 217 208 205 203 204 190 181 196 190 180 176 147 167 179 178 175 173 163 161 162 162 158 160 155 151 154 151 150 146 148 147 147 150 153 148 142 147 140 130 132 133 135
187 168 145 105 115 168 234 238 175 167 196 206 210 219 216 218 196 219 222 239 108 163 130 189 198 201 219 230 253 248 244 274 251 250 255 258 254 244 240 238 236 238 231 229 220 214 213 213 207 192 188 196 192 174 167 157 166 174 172 177 175 172 163 170 167 162 160 160 158 158 154 152 152 153 155 158 152 146 141 147 148 139 138 140 135 140 141
151 198 116 138 202 232 238 100 164 182 199 203 210 224 221 225 226 246 257 254 240 202 193 192 197 198 224 222 231 247 237 217 222 239 255 258 253 247 244 243 237 235 233 234 225 218 218 204 188 175 192 188 156 155 160 165 171 167 175 170 176 173 172 168 163 163 165 166 161 158 157 156 158 161 159 150 151 155 157 156 155 155 153 149 149 140 137
56 121 165 165 219 234 14 262 196 192 199 206 201 243 243 231 218 222 233 238 240 240 234 237 242 237 250 307 250 239 243 203 215 226 240 249 245 241 234 227 235 220 223 223 218 225 194 176 189 187 188 168 162 169 162 166 168 173 171 174 176 168 174 174 173 171 166 166 162 161 162 162 163 164 162 162 158 157 148 137 119 123 120 131 142 143 138
158 195 179 214 351 338 273 249 212 152 168 140 174 217 239 223 222 220 233 238 236 243 244 235 238 213 350 288 263 233 220 223 227 221 231 234 237 231 248 189 220 220 222 220 225 186 172 185 182 192 170 163 164 158 168 174 170 172 171 178 181 180 182 177 175 170 169 167 168 168 166 165 169 169 165 163 159 153 144 146 145 150 149 145 143 143 145
136 133 193 348 277 264 247 213 2 155 149 162 177 197 262 227 221 219 229 231 231 233 234 236 203 97 226 263 260 243 210 220 223 231 236 253 263 24 241 262 275 262 244 237 212 178 178 189 191 168 160 164 161 165 172 168 171 176 181 190 186 182 181 174 175 175 176 173 169 170 172 177 174 169 159 151 159 165 157 153 152 151 141 132 135 145 149
90 143 174 202 205 236 131 149 171 169 163 155 130 95 260 245 182 215 212 224 225 224 224 224 135 158 221 244 253 252 220 224 225 237 247 246 243 241 235 233 243 233 228 202 186 170 170 190 182 159 160 160 162 172 174 176 180 184 195 194 188 185 181 176 177 174 173 173 173 173 178 177 171 166 168 163 150 148 144 140 139 134 137 135 133 132 138
194 171 174 216 216 246 215 177 188 172 123 107 94 95 266 263 202 214 201 209 214 224 224 204 167 195 230 239 242 261 233 201 168 200 244 259 340 324 329 300 237 239 182 121 129 176 194 192 152 157 155 161 171 174 177 172 185 200 203 193 168 158 159 161 162 168 174 174 175 176 175 166 162 162 146 142 154 146 134 132 134 136 135 140 142 142 143
172 170 236 322 285 262 219 220 174 143 145 121 131 209 226 253 216 211 168 206 212 216 218 156 201 216 217 230 216 95 76 100 87 39 68 151 221 273 317 297 314 182 174 169 173 188 161 138 147 150 153 156 174 174 169 179 205 198 154 142 152 156 149 155 162 167 166 173 168 164 157 152 138 132 145 149 144 141 137 132 132 136 141 141 137 135 138
187 198 195 227 261 237 177 305 155 174 113 192 207 218 194 168 240 195 186 197 221 204 193 191 214 231 191 122 117 75 77 125 150 35 9 47 58 14 301 323 103 124 125 105 95 83 121 143 147 153 153 164 169 169 174 201 195 147 147 150 146 148 154 157 158 157 156 147 146 145 135 136 142 143 136 139 146 144 143 146 146 144 144 142 141 134 130
44 63 203 48 254 255 132 113 96 300 175 237 168 172 301 207 187 179 210 203 222 161 203 212 220 225 159 195 179 142 144 127 107 77 51 54 48 25 10 30 19 111 109 96 89 107 128 138 148 155 156 161 169 169 195 197 154 150 146 146 149 152 153 156 160 159 157 155 154 150 151 153 151 153 153 152 153 150 148 147 146 146 150 150 146 144 139
184 180 187 209 222 100 161 139 182 199 196 193 180 123 186 227 175 195 205 233 193 187 191 206 225 219 191 298 98 110 98 68 54 60 58 68 55 57 34 42 0 99 101 97 95 73 102 133 148 158 161 163 169 182 201 151 145 139 145 149 148 151 157 158 155 158 159 158 155 156 155 153 153 153 157 156 153 158 158 153 153 153 159 157 153 157 156
176 204 212 213 231 167 202 177 171 168 202 120 189 138 197 167 225 177 154 217 212 195 182 185 180 179 210 179 171 158 181 146 139 114 72 64 56 50 41 17 12 66 113 120 99 70 48 93 118 153 164 159 167 187 172 138 143 145 141 142 146 151 154 155 156 152 149 156 158 158 160 158 158 161 159 161 161 171 165 167 166 163 164 165 164 159 158
302 302 189 246 250 215 232 300 265 186 164 169 123 133 107 241 180 167 187 192 184 182 171 132 183 192 183 152 119 94 112 129 91 91 90 55 52 55 49 42 34 70 84 83 88 85 48 37 65 88 93 135 165 175 131 138 136 137 139 140 146 147 143 147 150 147 147 146 150 158 161 171 171 169 167 171 170 166 171 171 170 167 165 170 171 169 177
137 238 177 158 198 189 207 216 332 317 67 164 151 144 236 187 148 172 299 204 178 175 165 159 164 188 161 140 130 125 121 130 139 113 108 78 63 66 62 353 24 81 92 88 88 89 69 12 46 75 87 70 115 129 139 131 130 131 136 138 136 140 148 143 140 153 155 159 158 155 165 160 155 162 163 173 166 168 177 173 175 174 172 176 175 176 181
182 237 152 177 248 237 210 170 165 188 204 205 181 176 184 151 126 123 86 91 113 134 151 161 123 130 148 132 148 146 152 145 144 130 111 111 89 55 76 32 75 83 85 106 108 97 79 14 23 66 73 74 107 118 122 127 128 128 136 148 150 152 145 142 149 159 158 153 158 162 172 170 168 168 178 183 181 184 183 182 178 184 180 183 184 184 184
286 359 327 5 57 39 236 221 251 243 196 183 164 141 136 141 116 91 52 45 64 126 148 138 120 111 126 144 147 136 134 121 121 124 100 76 83 62 52 28 53 81 105 96 95 94 66 354 34 63 62 55 75 117 130 136 139 135 137 130 126 129 134 136 145 152 155 162 169 165 165 177 185 185 183 189 195 208 238 241 216 192 185 191 194 190 178
213 206 194 158 133 224 228 225 216 219 194 155 137 121 128 142 133 128 102 56 39 55 45 134 138 125 123 115 128 125 133 134 128 111 90 82 74 63 52 63 66 66 60 91 94 86 42 8 44 66 58 48 47 75 116 138 139 134 135 131 131 141 146 152 152 159 160 161 162 162 169 174 170 151 145 185 205 204 211 221 200 343 216 210 199 179 181
218 197 154 189 177 175 193 199 211 161 147 146 155 174 163 162 153 151 129 117 65 41 21 18 119 125 127 129 115 102 93 84 76 98 113 110 89 74 49 71 55 68 71 86 94 81 43 33 56 58 58 33 42 38 89 132 137 139 140 139 143 145 153 165 165 164 158 161 168 163 168 171 175 176 156 144 148 168 190 212 210 221 211 191 179 194 194
316 157 173 178 165 185 228 300 132 141 156 142 138 134 130 146 154 150 119 127 134 120 77 54 49 111 111 118 116 109 95 82 90 78 63 71 92 89 50 83 90 80 67 73 96 127 72 65 68 67 71 35 28 16 41 101 123 142 155 151 164 170 167 157 154 160 160 156 155 162 172 174 178 180 181 188 236 201 190 203 212 208 210 206 202 189 188
203 213 161 163 110 85 54 72 80 107 127 136 132 136 137 121 97 111 116 103 84 129 121 97 58 58 108 102 103 110 111 95 90 96 86 81 65 68 66 64 59 79 91 87 66 66 64 63 56 48 54 9 357 8 18 55 112 138 159 156 150 153 155 155 154 155 158 163 173 173 176 177 186 185 188 193 197 206 197 196 201 203 202 198 190 188 185
126 111 100 97 94 92 132 88 58 72 87 108 100 88 80 95 108 95 84 96 95 83 104 108 97 52 89 109 102 108 95 94 95 95 86 76 66 58 46 45 51 56 65 65 67 72 71 75 82 71 52 345 349 345 1 30 98 142 153 151 152 154 163 164 159 168 174 177 177 188 186 188 189 191 202 200 204 185 173 176 197 212 208 194 183 176 175
98 138 118 78 54 91 221 137 170 134 95 89 107 105 101 100 95 94 87 76 73 69 81 88 98 100 78 82 95 87 106 118 83 72 79 72 61 45 0 6 59 80 80 71 58 52 68 69 67 63 24 325 306 328 32 81 92 91 107 104 95 128 145 154 167 175 177 176 182 179 181 190 194 198 204 204 196 192 195 195 197 195 194 195 193 182 176
130 12 0 148 186 189 160 100 105 107 104 114 116 116 124 120 109 100 91 87 75 70 63 49 88 93 87 60 95 91 78 78 82 75 70 61 38 25 34 48 57 69 67 62 51 41 56 62 59 43 359 329 333 330 54 92 105 111 113 118 119 123 145 158 161 164 174 179 179 181 190 199 201 203 200 198 201 208 208 212 206 199 199 188 184 195 184
7 8 33 65 100 105 109 111 96 100 98 89 102 115 121 100 91 90 85 84 102 92 74 57 49 54 82 62 70 92 88 84 80 71 69 53 43 39 41 67 82 89 83 82 66 49 57 51 38 30 352 337 342 350 23 72 104 115 116 123 131 137 149 157 164 163 169 170 179 187 191 191 190 201 206 209 208 205 208 214 212 205 186 161 134 214 194
61 93 94 96 112 121 114 107 113 113 116 124 114 101 111 112 98 89 96 84 82 85 76 66 63 49 46 64 51 80 95 96 96 84 66 46 37 24 21 353 66 65 53 40 24 14 32 33 30 19 355 352 354 12 32 67 82 97 137 140 155 163 163 158 146 154 154 176 182 183 184 186 195 197 208 211 214 211 214 216 209 193 189 194 196 195 191
88 89 96 104 101 96 107 117 114 113 114 114 113 105 84 94 110 112 108 102 79 85 62 72 70 60 49 61 68 73 85 88 85 80 71 59 47 38 29 28 62 46 33 7 349 5 14 11 10 359 345 351 22 78 89 95 108 101 100 117 134 160 157 161 162 165 170 166 175 176 189 185 195 194 211 211 216 219 222 222 218 207 204 198 200 208 204
96 81 82 85 99 105 96 103 108 109 117 126 113 109 125 124 124 126 122 99 101 109 97 73 65 69 95 101 89 84 86 85 78 70 60 50 43 34 37 46 70 95 127 337 359 7 356 356 357 354 345 345 345 8 55 68 96 151 217 188 171 176 165 158 158 166 169 179 184 181 193 184 204 200 209 212 215 216 214 217 222 220 213 210 215 216 191
106 95 84 107 97 92 101 102 114 105 92 84 73 83 68 68 87 93 97 105 97 71 73 73 66 74 124 131 111 113 117 115 100 79 58 48 45 37 29 36 83 113 121 104 72 321 301 306 305 320 349 332 355 7 358 276 203 220 235 208 205 184 194 197 180 178 170 182 190 205 197 206 205 206 215 217 217 216 216 220 222 225 222 222 222 210 187
130 141 142 144 143 147 142 131 109 102 88 72 73 72 70 63 76 80 78 79 74 64 53 34 9 39 87 82 79 82 106 85 48 31 27 28 22 11 3 0 15 113 129 105 125 97 92 349 344 357 6 16 8 13 312 251 223 216 202 185 173 181 187 214 188 180 193 214 214 214 209 211 214 216 221 219 220 219 224 226 229 226 230 229 222 209 197
81 75 70 74 68 78 98 118 125 119 115 102 81 64 63 65 67 71 66 65 55 30 348 358 20 48 65 66 63 60 63 73 67 43 23 20 2 350 342 347 359 41 60 57 43 34 20 11 12 2 10 3 6 309 275 249 242 203 219 183 194 197 205 189 195 201 212 225 206 207 222 222 230 227 225 223 226 225 229 233 232 231 235 235 231 205 206
70 77 64 56 55 70 78 80 85 95 99 100 94 90 76 66 63 59 53 49 30 22 21 16 31 59 57 54 58 56 61 53 45 34 20 10 353 342 348 7 12 31 65 64 43 18 358 6 1 355 355 346 339 316 306 279 250 223 225 196 223 251 222 224 229 241 242 221 225 223 221 229 230 230 227 232 232 232 233 236 233 234 235 237 229 210 205
61 79 80 68 62 70 72 69 77 93 95 96 98 93 86 71 71 72 71 53 33 24 10 17 55 60 63 62 71 71 62 51 33 25 6 350 342 346 346 33 58 40 49 75 8 0 355 2 348 350 1 350 340 327 315 296 275 250 259 212 225 248 246 255 255 239 251 241 232 235 238 236 238 236 230 227 230 233 232 236 239 237 239 238 231 217 210
54 65 72 69 70 68 60 54 58 83 96 83 69 74 80 86 79 74 68 57 40 20 9 35 59 68 73 78 71 60 48 36 24 11 354 355 350 346 8 54 36 37 59 39 342 345 2 351 351 356 350 352 346 332 322 311 281 241 212 242 235 246 254 251 258 257 251 249 246 239 238 237 240 242 237 231 233 232 233 237 237 237 239 235 228 223 216
64 58 57 59 63 67 74 57 48 40 50 88 94 75 68 76 79 79 67 55 35 18 24 40 53 64 51 57 56 50 41 22 9 5 356 345 349 16 44 56 53 43 39 342 337 357 356 354 350 352 350 343 338 337 333 323 301 238 228 226 251 246 250 256 251 258 260 254 250 248 246 246 243 247 241 238 235 237 236 237 237 237 237 233 226 225 220
68 56 52 50 57 54 67 63 54 55 53 47 66 71 48 53 58 67 68 58 34 32 22 21 49 63 48 51 46 40 22 10 1 0 357 339 330 28 101 88 51 18 10 9 1 351 349 349 353 347 343 334 336 330 331 326 314 287 237 243 237 249 252 251 256 257 259 256 254 253 247 246 246 243 245 244 241 240 241 240 241 240 239 236 233 229 224
62 70 59 63 65 54 61 70 66 55 53 52 54 52 46 42 48 68 53 51 30 35 40 39 60 67 58 41 34 343 340 342 4 345 336 337 14 40 70 93 41 15 0 4 357 350 346 349 346 342 329 334 333 330 327 323 321 292 271 251 247 244 252 252 246 249 248 249 248 245 245 250 251 251 249 248 246 245 243 241 240 238 235 237 238 232 230
45 57 64 66 62 59 57 69 92 85 60 54 51 50 42 33 50 66 64 63 54 48 55 57 59 71 59 40 340 345 331 347 6 336 334 324 280 299 47 101 64 9 354 1 347 346 336 334 336 330 324 321 319 318 320 317 301 289 265 257 249 245 243 248 249 250 248 246 247 251 254 251 251 256 253 251 254 251 246 245 244 241 239 238 238 235 232
43 49 55 65 66 60 58 53 50 74 79 55 45 48 55 45 54 62 62 60 61 57 57 57 59 52 57 44 31 20 1 359 352 324 329 295 243 224 220 221 6 352 354 351 335 341 327 321 320 316 315 317 310 311 313 304 300 281 265 257 254 250 245 245 249 252 253 253 252 250 248 248 252 254 258 255 255 252 250 247 246 245 241 238 240 239 237
52 48 48 58 55 38 54 64 73 84 88 75 42 52 69 54 48 44 41 43 49 52 61 54 55 54 39 42 59 15 354 339 338 325 346 317 32 51 89 63 329 337 345 337 335 324 318 314 308 304 309 311 312 311 308 300 291 282 271 261 257 256 255 254 251 247 246 247 252 249 251 253 254 253 255 260 260 257 251 247 247 245 243 242 240 240 238
54 49 52 63 85 101 118 124 109 88 75 96 101 75 56 54 40 44 45 37 24 26 31 34 15 12 0 15 351 299 287 278 271 260 323 322 355 278 60 26 349 338 332 325 321 311 302 301 303 313 316 317 315 314 307 298 291 282 269 263 257 256 254 254 252 251 249 252 251 252 251 253 253 255 257 258 260 260 257 254 252 246 243 244 243 240 237
85 73 63 79 75 95 198 84 97 121 140 128 124 108 84 64 28 15 35 36 1 325 340 327 321 315 318 313 303 288 271 265 260 224 212 211 216 253 353 2 318 323 316 323 306 305 299 307 316 320 319 319 319 314 303 296 290 291 281 271 260 256 254 254 255 254 254 254 254 255 256 256 259 260 257 259 260 261 263 261 261 254 245 244 242 239 235
116 93 64 50 41 20 10 351 318 56 76 66 46 3 8 18 5 354 337 343 325 301 307 303 292 295 304 294 280 317 332 331 300 250 181 197 44 18 317 313 313 312 319 313 306 302 303 311 314 316 318 317 319 314 304 298 294 284 282 270 268 258 260 257 256 256 258 259 259 259 258 260 261 263 264 262 261 260 260 260 259 258 251 246 245 238 233
34 54 43 33 28 359 14 24 48 52 52 68 78 320 308 353 340 324 314 305 321 317 310 298 295 299 299 285 265 238 235 194 347 330 110 91 318 317 317 312 303 312 310 303 302 298 304 306 311 314 317 318 316 310 310 300 293 282 271 269 263 260 258 257 261 259 257 257 259 260 262 262 259 257 258 260 260 261 258 258 258 257 252 243 241 238 227
49 45 4 7 20 41 49 46 54 60 23 358 37 310 339 339 310 302 303 355 350 330 322 308 303 293 290 273 272 250 237 239 212 243 309 2 323 310 297 295 303 307 306 297 294 292 295 302 307 310 309 308 306 300 295 293 284 281 276 268 266 263 260 258 255 254 254 257 255 257 258 260 261 263 264 267 267 265 263 261 259 258 249 245 238 233 228
9 50 36 30 24 8 28 50 13 244 272 348 285 271 300 310 351 295 338 346 301 299 298 288 288 283 277 278 267 262 238 231 268 277 277 279 287 288 282 291 287 293 295 295 292 291 296 303 306 302 299 292 289 287 283 280 283 279 276 275 274 272 266 264 265 264 263 263 268 272 274 276 276 276 275 274 273 271 266 262 258 257 253 247 243 236 229
347 79 1 331 311 277 264 233 239 271 289 270 259 263 244 71 288 290 315 309 333 331 320 319 307 294 278 283 295 296 277 267 261 262 267 275 275 283 286 283 286 284 286 289 288 290 292 295 290 289 292 292 289 286 283 281 279 280 278 274 268 266 268 268 267 264 268 270 272 272 273 274 276 275 275 272 272 270 267 264 263 260 253 250 246 241 236
273 243 256 270 265 279 274 261 253 236 240 250 239 230 258 246 294 311 303 297 280 277 292 322 316 293 268 308 293 291 286 263 265 276 277 275 276 271 275 281 280 284 282 276 277 276 276 274 280 285 284 283 281 280 281 285 283 278 279 276 275 272 268 265 265 265 266 266 267 267 267 265 266 271 270 272 271 270 269 266 258 255 250 247 247 245 242